Terminal Aerodrome Forecast
Issued by NWS Lubbock, TX

Home | Current Version | Previous Version | Text Only | Print | Product List | Glossary On
Versions: 1 2 3 4 5 6 7 8 9 10 11 12 13 14 15 16 17
811
FTUS44 KLUB 281300 AAA
TAFLBB
TAF AMD
KLBB 281300Z 2813/2912 02016KT P6SM SCT150
     FM290000 08006KT P6SM SKC=

USA.gov is the U.S. government's official web portal to all federal, state and local government web resources and services.